Location: Augirein
(42.9320°N, 0.9181°E)
Time: 20:43:21
(UTC+00:00)

X-37B - Pass Details

Date: 20 June 2021
Orbit: 383 x 392 km, 45.0° (Epoch: 01 July)

Event Time Altitude Azimuth Distance (km) Brightness Sun altitude
Exits shadow 00:28:43 16° 71° (ENE) 1,086 3.1 -23.3°
Drops below altitude 10° 00:29:31 10° 74° (ENE) 1,406 3.7 -23.2°
Sets 00:31:36 0° 77° (ENE) 2,262 4.7 -23.2°
